Flag for Germany Weather past 2 weeks in Kamen, North Rhine-Westphalia, Germany

Now
46 °F

Scattered showers. Scattered clouds.


Feels Like: 38 °F
Forecast: 38 / 43 °F
Wind: 25 mph from West

Location: Dortmund / Wickede

Current Time: Mar 31, 2015 at 5:46:01 PM

Latest Report: Mar 31, 2015 at 5:20 PM


Visibility: N/A

Pressure: 29.62 "Hg

Humidity: 50%

Dew point: 28 °F

Location of KamenLocation

Historic Weather in Kamen — Graph

°F

Kamen temperature yesterday

Maximum temperature yesterday: 46 °F (at 12:20 PM)
Minimum temperature yesterday: 39 °F (at 2:50 PM)
Average temperature yesterday: 43 °F

Past Weeks' High & Low Weather Summary

 TemperatureHumidityPressure
High61 °F (Mar 17, 2:50 PM)93% (Mar 19, 5:20 AM)30.36 "Hg (Mar 19, 5:20 AM)
Low28 °F (Mar 23, 5:20 AM)39% (Mar 17, 3:20 PM)29.21 "Hg (Mar 29, 7:20 PM)
Average44 °F73%29.95 "Hg
* Reported Mar 16 3:20 PM — Mar 31 4:20 PM, Kamen, Weather by CustomWeather, © 2015

Note: Actual official high and low records may vary slightly from our data, if they occured in-between our weather recording intervals... More about our weather records

Advertising

Kamen weather history for previous 24 hours

 ConditionsComfort  
Time TempWeatherWind HumidityBarometerVisibility
4:20 PM
Tue, Mar 31
48 °FScattered showers. Scattered clouds.25 mph50%29.56 "HgN/A
3:50 PM48 °FSprinkles. Scattered clouds.23 mph50%29.53 "HgN/A
3:20 PM48 °FScattered showers. Partly sunny.20 mph58%29.53 "HgN/A
2:50 PM48 °FScattered showers. Scattered clouds.29 mph54%29.50 "HgN/A
2:20 PM50 °FBroken clouds.25 mph50%29.47 "HgN/A
1:50 PM48 °FPartly sunny.23 mph62%29.45 "HgN/A
1:20 PM46 °FScattered clouds.25 mph71%29.42 "HgN/A
12:50 PM46 °FPartly sunny.24 mph71%29.42 "HgN/A
12:20 PM48 °FLight rain. Partly sunny.21 mph62%29.39 "HgN/A
11:50 AM50 °FLight rain. Partly sunny.26 mph58%29.36 "HgN/A
11:20 AM50 °FLight rain. Partly sunny.25 mph58%29.36 "HgN/A
10:50 AM48 °FPartly sunny.25 mph66%29.33 "HgN/A
10:20 AM48 °FDrizzle. Partly sunny.25 mph71%29.33 "HgN/A
9:50 AM48 °FPartly sunny.24 mph76%29.30 "HgN/A
9:20 AM46 °FLight rain. Scattered clouds.24 mph76%29.27 "HgN/A
8:50 AM48 °FRain. Partly sunny.22 mph82%29.24 "Hg1 mi
8:20 AM50 °FLight rain. Partly sunny.29 mph82%29.21 "HgN/A
7:50 AM50 °FRain. Passing clouds.30 mph82%29.21 "Hg3 mi
7:20 AM50 °FLight rain. Passing clouds.28 mph82%29.21 "Hg5 mi
6:50 AM50 °FLight rain. Passing clouds.32 mph82%29.21 "Hg6 mi
6:20 AM50 °FLight rain. Passing clouds.30 mph88%29.21 "Hg5 mi
5:50 AM50 °FRain. Passing clouds.31 mph88%29.21 "Hg4 mi
5:20 AM50 °FRain. Passing clouds.32 mph88%29.21 "Hg3 mi
10:50 PM
Mon, Mar 30
41 °FClear.9 mph61%29.74 "Hg10 mi
10:20 PM41 °FQuite cool.9 mph61%29.77 "HgN/A
9:50 PM39 °FClear.10 mph65%29.80 "Hg10 mi
9:20 PM39 °FChilly.10 mph61%29.80 "HgN/A
8:50 PM41 °FSunny.9 mph57%29.80 "Hg10 mi
8:20 PM43 °FPassing clouds.10 mph49%29.80 "HgN/A
7:50 PM43 °FSunny.15 mph53%29.80 "Hg10 mi
7:20 PM45 °FClear.16 mph49%29.80 "HgN/A
6:50 PM45 °FPassing clouds.13 mph49%29.80 "HgN/A
6:20 PM45 °FPassing clouds.16 mph53%29.77 "HgN/A
5:50 PM45 °FPassing clouds.15 mph53%29.77 "HgN/A
5:20 PM45 °FPassing clouds.17 mph53%29.74 "HgN/A
Weather by CustomWeather, © 2015

See weather overviewHow to use our weather pages